Location: Flint Hill Observatory
(31.1875°N, 100.5222°W)
Time: 20:04:03
(UTC-06:00)

Daily predictions for brighter satellites

Satellite Brightness Start Highest point End
(mag) Time Altitude Azimuth Time Altitude Azimuth Time Altitude Azimuth
H-2A ROCKET BODY 4.1 18:12:26 10° WSW 18:18:14 68° SSE 18:53:01 10° E
IRS-1A Rocket 4.3 18:26:53 10° SSE 18:32:16 57° ENE 18:37:45 10° N
USA 267 3.6 18:26:36 10° SE 18:33:10 75° SW 18:39:46 10° NW
OAO 3 Rocket 3.2 18:28:49 10° WNW 18:33:27 66° NNE 18:38:09 10° E
SPOT 3 Rocket 4.4 18:30:35 10° SE 18:34:52 27° ENE 18:39:10 10° NNE
Lacrosse 5 2.9 18:31:46 10° S 18:36:05 28° ESE 18:40:25 10° ENE
Cosmos 968 Rocket 4.3 18:35:39 10° NNW 18:40:41 57° WSW 18:45:40 10° S
COSMO-SKYMED 1 2.5 18:36:36 10° NNE 18:40:57 77° ESE 18:45:17 10° S
ATLAS 2AS CENTAUR R/B 4.3 18:35:54 10° NW 18:43:04 44° WSW 18:49:37 10° S
FENGYUN 3A 3.9 18:38:45 10° SE 18:43:47 44° ENE 18:48:51 10° N
CZ-2C R/B 4.3 18:39:48 10° N 18:44:25 63° WNW 18:48:55 10° SSW
SeaSat 1 3.2 18:40:28 10° SSE 18:45:19 59° WSW 18:50:11 10° NNW
MOS 1 4.5 18:40:14 10° SE 18:45:37 48° ENE 18:51:01 10° N
ASTRO E2 2.6 18:43:20 10° W 18:47:20 86° N 18:51:07 11° E
SL-8 Rocket 4.4 18:41:55 10° N 18:48:05 71° W 18:54:18 10° S
Cosmos 2208 Rocket 4.5 18:45:21 10° S 18:50:12 40° E 18:55:09 10° NNE
Cosmos 1743 Rocket 3.7 18:47:04 10° S 18:51:18 52° E 18:55:32 10° NNE
METEOR-M 4.2 18:46:54 10° SSE 18:52:15 88° W 18:57:38 10° NNW
Meteor 2-2 Rocket 4.2 18:49:37 10° N 18:55:20 85° E 19:00:57 10° S
Cosmos 1328 Rocket 3.6 18:54:04 10° N 18:58:19 54° E 19:02:31 10° SSE
Cosmos 2218 Rocket 4.4 18:53:13 10° NNW 18:59:19 69° W 19:05:24 10° S
Cosmos 371 Rocket 3.2 18:56:35 10° SSW 19:01:22 81° ESE 19:06:13 10° NNE
ISS -3.1 18:59:08 10° SSW 19:02:08 35° SE 19:03:52 20° ENE
Cosmos 2228 Rocket 3.4 18:58:51 10° N 19:03:15 45° E 19:07:37 10° SSE
Cosmos 2082 Rocket 3.6 19:01:43 10° SE 19:05:23 18° E 19:06:43 16° E
NOSS 3-4 (A) 3.9 18:59:06 10° NNW 19:06:20 75° ENE 19:14:02 10° SE
NOSS 3-4 (C) 3.9 18:59:11 10° NNW 19:06:26 74° ENE 19:14:09 10° SE
Cosmos 2058 3.0 19:09:08 10° S 19:13:17 79° W 19:17:29 10° N
SEDSat Delta rocket 4.0 19:07:43 10° W 19:14:33 87° N 19:19:05 21° E
H-2A R/B 3.1 19:13:12 10° SE 19:16:45 40° ENE 19:20:23 10° N
Cosmos 2098 Rocket 4.1 19:11:08 10° N 19:17:06 86° E 19:24:16 10° S
Cosmos 1241 Rocket 4.4 19:15:16 10° NNW 19:21:25 61° ENE 19:27:36 10° SE
Cosmos 1570 Rocket 4.1 19:16:40 10° SSW 19:21:59 83° WNW 19:27:18 10° NNE
Cosmos 1455 2.0 19:20:52 10° N 19:24:42 83° E 19:28:29 10° S
CZ-4 R/B 4.3 19:21:43 10° SSW 19:24:58 22° W 19:28:16 10° NW
COSMOS 2406 4.4 19:21:03 10° SW 19:26:27 43° WNW 19:31:52 10° N
Cosmos 1151 Rocket 2.9 19:22:25 10° N 19:26:49 73° E 19:31:09 10° SSE
Cosmos 1833 Rocket 3.4 19:22:57 10° SSE 19:27:48 31° ESE 19:29:06 28° ENE
Cosmos 1346 Rocket 3.8 19:24:35 10° NNW 19:28:19 46° W 19:32:02 10° SSW
Cosmos 1805 Rocket 4.1 19:27:17 10° SSE 19:31:08 34° E 19:31:08 34° E
Hubble Space Telescope 1.8 19:29:24 10° SW 19:33:09 34° SSE 19:34:20 28° SE
SL-27 R/B 2.2 19:29:53 10° SSW 19:33:17 83° ESE 19:34:39 35° NNE
Cosmos 1821 Rocket 3.9 19:31:07 10° N 19:37:18 67° E 19:43:31 10° SSE
Cosmos 1535 Rocket 4.4 19:33:02 10° N 19:39:03 57° E 19:45:01 10° SSE
FengYun 1-2 T 4.1 19:37:18 10° SSE 19:42:55 76° ENE 19:48:32 10° N
ERS-2 3.0 19:46:02 10° S 19:49:36 50° W 19:53:11 10° NNW
Cosmos 304 Rocket 3.6 19:46:03 10° SSW 19:50:50 85° ESE 19:52:46 36° NNE
ALOS 4.3 19:47:20 10° SSW 19:51:24 29° W 19:55:29 10° NW
Delta 2 Rocket 4.4 19:50:58 10° SW 19:56:29 48° SSE 19:57:17 44° SE
Thor Agena Rocket 3.5 19:52:55 13° NNE 19:57:35 84° WNW 20:02:45 10° SSW
Tiangong 1 3.9 20:00:51 10° WNW 20:01:08 12° WNW 20:01:08 12° WNW
Cosmos 1934 Rocket 4.0 20:05:00 10° N 20:11:23 87° W 20:17:44 10° S
Atlas Centaur 2 3.9 20:08:18 10° SSW 20:13:51 23° SSE 20:13:58 23° SSE
CZ-4C R/B 2.8 20:09:47 10° SW 20:14:38 49° WNW 20:16:36 33° N
OAO 3 Rocket 3.8 20:12:24 10° W 20:16:55 48° SSW 20:16:56 48° SSW
Delta 168 4.2 20:09:33 10° WSW 20:17:01 50° S 20:17:47 47° SSE
Lacrosse 5 3.2 20:14:17 10° WSW 20:18:54 34° NW 20:20:10 30° NNW
Cosmos 909 Rocket 4.3 20:14:36 10° NNW 20:20:57 65° WSW 20:27:11 10° SSE
Cosmos 1727 Rocket 3.8 20:22:04 10° S 20:27:51 80° SSE 20:27:51 80° SSE
Delta 7925 Rocket 4.5 20:31:44 10° WSW 20:37:37 47° SSW 20:37:37 47° SSW
ISS -0.2 20:36:32 10° WNW 20:36:33 10° WNW 20:36:33 10° WNW
Cosmos 841 Rocket 4.4 20:33:50 10° SSW 20:37:34 45° SW 20:37:34 45° SW
ATLAS CENTAUR R/B 4.0 20:35:42 10° SW 20:36:09 13° SW 20:36:09 13° SW
Cosmos 2082 Rocket 3.0 20:43:34 10° SW 20:48:39 46° WNW 20:48:39 46° WNW
CZ-3C R/B 4.3 20:46:02 10° S 20:46:56 14° S 20:46:56 14° S
Cosmos 1833 Rocket 4.5 21:06:54 10° WSW 21:10:53 27° WNW 21:10:53 27° WNW
